CZ-6A DEB, 56594

Orbit data source: Space-Track

CZ-6A DEB, 56594 is space debris in SSO originally from a launch on Fri, 11 Nov 2022 UTC launched from the Taiyaun Space Center, China (TSC). Debris objects in space refer to the collection of defunct objects orbiting the Earth. Examples of debris include non-operational satellites, rocket bodies, and fragments generated from explosions, collisions, or faulty payload assembly.

Loading next visibility...
Identifier
56594, 2022-151ADS
Orbit
SSO
Country
Flag of CNCN / PRC
Related business
Manufacturer
SAST
Mission
Spacecraft
Bus & Motor
Unknown
Mass
Unknown
Launch date (UTC)
2022-11-11 (4 years ago)
Launch vehicle
Unknown
Launch site
Taiyaun Space Center, China (TSC)
Object type
Payload
Rocket body
Debris
Shape & HBR
Unknown shape, 0.1 m
Radar Cross Section
Medium (>0.1 m² and <1 m²)

Expand to show TLE details & history
Last TLE update: 2 days ago

TLE from 2 days ago
0 CZ-6A DEB
1 56594U 22151ADS 26235.44717458  .00000160  00000-0  10507-3 0  9991
2 56594  98.8034 240.3585 0029068  73.0839 287.3517 14.14827711177009
Epoch: 2026-08-23T10:43Z
TLE epoch observation values (Epoch: 2026-08-23T10:43:55.883Z)
Latitude
-0.00011°
Longitude
107.63257°
Altitude
839.597 km
Speed
7.436 km/s
True Right ascension
16h 01m 26s
True Declination
0° 00' 00"
Sunlit
Object was in daylight at epoch
Visualization orbit readout
Latitude
Unknown
Longitude
Unknown
Altitude
Unknown
Speed
Unknown
Apparent Right ascension
Unknown
Apparent Declination
Unknown
Sunlit
N/A
Visualization observer readout
Local Sidereal Time
14:12:43
Azimuth
Unknown
Elevation
Unknown
Doppler factor
Unknown
Orbital elements
Apogee altitude
861.05 km
Perigee altitude
819.086 km
Semi-major axis
7,218.205 km
Eccentricity
0.00291
Inclination
98.8034°
RAAN
240.3585°
Arg. of periapsis
73.0839°
True anomaly
287.03342°
Mean anomaly
287.3517°
Eccentric anomaly
287.19259°
Mean motion
3.53915 °/min
Orbital period
101.72 mins
BSTAR
0.00010507
Loading maneuver chart data...
Computing Atmospheric mass density...
Loading historical data...
Loading historical data...
Loading historical data...
Loading historical data...
Loading historical data...
Loading historical data...
Loading historical data...

Documentation

Showing up to 5 results
|